Regional Weather Roundup
Issued by NWS

Home | Current Version | Previous Version | Graphics & Text | Print | Product List | Glossary On
Versions: 1 2 3 4 5 6 7 8 9 10 11 12 13 14 15 16 17 18 19 20 21 22 23 24 25 26 27 28 29 30 31 32 33 34 35 36 37 38 39 40 41 42 43 44 45 46 47 48 49 50
000
ASUS43 KMPX 300210
RWRMN
WEATHER ROUNDUP FOR MINNESOTA
NATIONAL WEATHER SERVICE TWIN CITIES/CHANHASSEN MN
900 PM CDT WED JUL 29 2015


NOTE: "FAIR" INDICATES FEW OR NO CLOUDS BELOW 12,000 FEET WITH NO
SIGNIFICANT WEATHER AND/OR OBSTRUCTIONS TO VISIBILITY. N/A MEANS
CURRENT SKY AND/OR WEATHER CONDITIONS ARE NOT AVAILABLE.

MNZ060>063-068>070-300300-
   Twin Cities Metro

CITY           SKY/WX    TMP DP  RH WIND       PRES   REMARKS
TWIN CITIES    CLEAR     78  54  43 W12       29.95R
ST PAUL        CLEAR     77  55  46 W14       29.94R
CRYSTAL        CLEAR     76  55  48 W8        29.93S
BLAINE         CLEAR    N/A N/A N/A W9        29.94R
LAKEVILLE      CLEAR     72  55  56 W6        29.97S
EDEN PRAIRIE   CLEAR     74  55  51 W7        29.95S
SOUTH ST PAUL  CLEAR     77  53  43 W7        29.95R
LAKE ELMO      FAIR      75  55  50 W12G20    29.95R
$$
MNZ001>005-007-008-013>017-022>024-027-028-300300-
   Northwest Minnesota

CITY           SKY/WX    TMP DP  RH WIND       PRES   REMARKS
BEMIDJI        CLEAR     70  53  55 W9G16     29.87S
HALLOCK        PTCLDY    70  57  64 W6        29.84R
ROSEAU         PTCLDY    70  55  60 W7        29.82R
WARROAD        PTCLDY    70  57  64 W10       29.81R
THIEF RVR FALL PTCLDY    70  55  60 W9        29.87R
CROOKSTON      PTCLDY    72  59  64 NW9       29.89R
FOSSTON        PTCLDY    70  55  60 W8        29.90R
DETROIT LAKES  MOCLDY    72  54  53 W9        29.95R
MOORHEAD       PTCLDY    70  57  64 W8        29.94R
PARK RAPIDS    PTCLDY    70  54  56 W8        29.91R
MAHNOMEN       FAIR      69  57  65 W8        29.91R
$$
MNZ006-009>011-018-025>026-300300-
   North Central Minnesota

CITY           SKY/WX    TMP DP  RH WIND       PRES   REMARKS
BAUDETTE       MOCLDY    67  55  65 W7        29.79S
FLAG ISLAND    MOCLDY    70  55  60 W18       29.76R
INTL FALLS     CLOUDY    65  56  72 W8G17     29.78S
WASKISH        PTCLDY    72  55  56 W13G21    29.83R
BIG FORK       PTCLDY    70  52  52 W5        29.83R
LONGVILLE      CLEAR     72  54  53 W7        29.88R
GRAND RAPIDS   PTCLDY    72  54  53 W7        29.85S
CRANE LAKE     CLOUDY    64  57  77 W7G29     29.80R
ORR            CLOUDY    70  48  46 NW18G24   29.78R
COOK           CLOUDY    70  52  52 W12G17    29.81R
WALKER         MOCLDY    70  55  57 W9        29.88R
$$
MNZ012-019>021-037-300300-
   Northeast Minnesota

CITY           SKY/WX    TMP DP  RH WIND       PRES   REMARKS
DULUTH         PTCLDY    68  53  58 W9        29.83S
ELY            MOCLDY    70  52  52 W12G18    29.77R
HIBBING        CLEAR     70  50  49 W10       29.82R
EVELETH        CLEAR     72  52  49 W13G21    29.83R
DULUTH HARBOR  PTCLDY    75  55  50 SW16      29.81S
TWO HARBORS    CLEAR     72  57  60 W9        29.78R
SILVER BAY     CLEAR     72  52  49 SW3       29.75S
GRAND MARAIS     N/A     52  48  86 W8        29.70F
G MARAIS ARPRT   N/A     63  54  72 SW3       29.75S
$$
MNZ029>031-032-039>041-046>048-054>057-064-300300-
   West Central Minnesota

CITY           SKY/WX    TMP DP  RH WIND       PRES   REMARKS
FERGUS FALLS   PTCLDY    70  57  64 W7        29.95R
WHEATON        CLEAR     70  54  56 W8        30.01R
MORRIS         CLEAR     68  57  68 W7        29.99R
ALEXANDRIA     PTCLDY    71  57  61 W9        29.99R
ELBOW LAKE     FAIR      69  57  64 W9        29.98R
WADENA         PTCLDY    70  55  60 W8        29.93R
GLENWOOD       CLEAR     72  54  53 W9        29.99S
APPLETON       CLEAR     70  57  64 W6        30.00R
BENSON         CLEAR     70  55  60 W6        30.00R
ORTONVILLE     CLEAR     75  52  43 W7        30.01R
MADISON        CLEAR     70  54  56 W7        30.02S
WILLMAR        FAIR      70  59  68 W7        30.01S
$$
MNZ033>034-036-042>043-049>051-058-059-300300-
   Central Minnesota

CITY           SKY/WX    TMP DP  RH WIND       PRES   REMARKS
ST CLOUD       CLEAR     71  55  56 W8        29.94R
SAUK CENTRE    FAIR      68  57  66 W8        29.97S
PAYNESVILLE    CLEAR     64  55  71 SW7       29.98S
AITKIN         PTCLDY    72  55  56 W3        29.88R
PINE RIVER     PTCLDY    72  55  56 W5        29.93R
BRAINERD       PTCLDY    73  52  47 W9        29.91R
STAPLES        PTCLDY    68  55  64 W7        29.93S
LONG PRAIRIE   FAIR      72  54  53 W8        29.96S
LITTLE FALLS   CLEAR     72  52  49 W6        29.94R
LITCHFIELD     CLEAR     73  57  56 W7        29.99R
BUFFALO        CLEAR     73  55  52 W7        29.97R
MAPLE LAKE     CLEAR     75  57  53 W8        29.97R
$$
MNZ037-044-045-052-053-300300-
   East Central Minnesota

CITY           SKY/WX    TMP DP  RH WIND       PRES   REMARKS
PRINCETON      CLEAR     73  55  53 W5        29.93S
MORA           CLEAR     70  50  49 W7        29.92S
CAMBRIDGE      CLEAR     75  57  53 W5        29.91R
RUSH CITY      CLEAR     69  55  61 W5        29.91S
MOOSE LAKE     CLEAR     70  52  52 W6        29.85S
HINCKLEY       FAIR      68  55  64 W6        29.90R
CLOQUET        PTCLDY    72  48  43 W12       29.85R
MCGREGOR       CLEAR     72  54  53 W6        29.88R
$$
MNZ071>073-080-081-089-090-097-098-300300-
   Southwest Minnesota

CITY           SKY/WX    TMP DP  RH WIND       PRES   REMARKS
MONTEVIDEO     CLEAR     72  52  49 CALM      30.03R
GRANITE FALLS  CLEAR     68  56  65 W7        30.03S
CANBY          CLEAR     71  56  59 W7        30.05S
MARSHALL       CLEAR     70  57  64 NW6       30.05S
REDWOOD FALLS  CLEAR     74  56  53 W9        30.01S
OLIVIA         CLEAR     68  54  60 W8        30.00S
PIPESTONE      CLEAR     70  61  73 W3        30.09R
WINDOM         CLEAR     70  61  73 CALM      30.06S
WORTHINGTON    CLEAR     68  57  68 W8        30.08S
JACKSON        CLEAR     70  59  68 W5        30.08R
TRACY          CLEAR     70  59  68 W7        30.05S
SLAYTON        CLEAR     69  60  73 CALM      30.09R
$$
MNZ065>067-074>077-082>085-091>093-300300-
   South Central Minnesota

CITY           SKY/WX    TMP DP  RH WIND       PRES   REMARKS
MANKATO        CLEAR     73  55  53 W7        30.01S
NEW ULM        CLEAR     68  57  68 W7        30.02R
ST JAMES       CLEAR     72  61  68 SW6       30.04S
FAIRMONT       CLEAR     72  54  53 W8        30.05S
GLENCOE        CLEAR     72  58  60 W6        29.98R
FARIBAULT      CLEAR     72  57  60 SW6       30.00S
OWATONNA       CLEAR     66  57  72 W8        30.02R
WASECA         CLEAR     63  57  82 SW6       30.03S
ALBERT LEA     CLEAR     72  57  60 W3        30.04R
$$
MNZ078>079-086>088-094>096-300300-
   Southeast Minnesota

CITY           SKY/WX    TMP DP  RH WIND       PRES   REMARKS
ROCHESTER      CLEAR     66  58  75 W9        30.02R
RED WING       CLEAR     73  54  49 W6        29.94R
STANTON        CLEAR     73  55  52 SW6       29.97R
DODGE CENTER   CLEAR     66  57  72 W7        30.02S
WINONA         CLEAR     77  54  44 W6        29.97R
AUSTIN         CLEAR     73  57  56 W7        30.03R
PRESTON        CLEAR     69  56  64 W9        30.03R
$$
ABBREVIATIONS USED IN REMARKS
   TC - TEMPERATURES IN CELSIUS
  WCI - WIND CHILL INDEX
   HX - HEAT INDEX
  VSB - VISIBILITY
$$



USA.gov is the U.S. government's official web portal to all federal, state and local government web resources and services.